Theta_e
325 326 326 325 325 327 327 328 329 329 329 329 329 328 327 328 329 324 316 324 326 331 326 321 325 325 324 317 316 312 311 308 307 305 307 309 310 311 314 315 319 322 320 324 330
323 325 325 325 325 325 326 327 327 328 328 329 329 328 327 328 321 316 326 330 330 331 320 321 319 323 320 317 315 312 311 311 312 312 310 310 309 311 311 313 315 318 323 326 330
321 322 324 325 324 324 325 326 326 327 328 328 328 327 328 327 312 313 329 331 331 329 323 321 321 321 316 316 313 311 310 311 309 310 312 311 308 311 311 310 315 315 320 325 327
319 321 322 324 324 324 324 325 325 326 327 327 327 326 326 321 301 315 326 331 331 326 321 319 318 315 312 311 311 309 310 310 310 309 310 309 311 307 311 313 314 319 321 325 325
317 319 320 321 323 324 324 324 324 325 326 326 326 326 321 311 310 320 327 328 327 322 319 317 313 312 307 312 309 310 310 307 309 308 309 309 309 310 310 315 313 315 316 321 324
315 317 318 320 321 323 323 323 324 324 325 326 325 325 316 305 320 324 326 326 323 321 319 319 316 317 311 311 310 313 311 311 312 310 309 308 310 309 315 318 313 312 317 319 323
314 315 317 319 319 321 323 323 323 324 324 326 325 322 313 310 321 326 323 322 322 321 317 319 320 316 314 309 311 310 308 310 311 312 312 310 308 306 315 313 313 316 317 318 321
313 314 315 317 318 319 322 322 322 323 324 325 324 318 306 319 325 319 320 317 319 319 319 319 319 314 311 312 309 307 307 299 306 311 312 311 304 314 316 311 312 315 317 318 319
312 312 314 316 317 318 320 322 321 323 324 323 316 312 302 320 316 320 320 315 316 316 317 318 319 312 308 305 300 303 294 296 298 310 309 308 304 311 314 310 312 314 313 314 317
311 311 313 315 316 317 319 321 321 321 319 316 315 305 309 306 315 318 319 318 314 313 311 311 310 305 304 301 290 293 294 297 297 304 307 304 304 309 313 312 312 314 315 314 312
310 311 313 314 315 316 318 315 307 304 306 300 302 302 305 314 319 315 318 315 314 310 302 306 300 297 299 302 300 298 296 295 298 304 303 302 304 307 310 311 310 311 312 313 314
310 310 311 313 315 315 315 307 308 305 296 305 305 306 310 314 305 310 317 307 305 299 304 300 296 302 303 302 300 299 297 297 300 303 302 302 301 305 307 308 309 310 311 312 314
309 310 311 312 314 312 307 308 311 308 295 296 303 304 307 310 304 305 311 307 302 299 300 297 298 303 301 299 298 298 296 296 296 299 301 299 296 299 304 307 308 310 312 312 313
308 309 310 311 306 307 303 310 312 309 287 289 296 302 306 308 300 311 312 307 302 298 299 298 301 299 297 296 297 292 299 297 297 295 290 298 288 297 300 302 305 308 310 311 313
306 308 310 310 304 301 305 311 311 303 277 292 295 308 306 300 302 304 313 305 298 297 297 293 296 296 295 295 298 294 298 297 297 294 293 293 290 293 299 297 300 304 306 309 311
306 308 309 306 306 307 311 312 304 284 277 288 295 296 296 299 300 304 303 306 305 299 299 297 299 300 298 299 299 299 297 296 296 294 284 290 289 290 294 297 299 302 305 307 309
305 307 306 306 298 310 311 302 284 279 288 284 289 294 295 293 295 297 296 294 292 287 287 290 294 297 300 295 298 297 293 284 283 282 282 290 289 291 297 299 300 302 305 307 309
305 307 306 305 308 309 305 291 279 284 284 290 292 293 289 293 293 294 293 290 296 295 288 285 282 293 297 296 292 293 293 285 278 279 283 288 285 291 300 302 304 304 305 306 307
304 303 302 305 307 307 296 282 282 285 287 289 291 287 287 290 292 292 290 289 293 295 289 287 286 294 297 298 297 293 290 294 285 284 283 287 291 296 298 298 300 301 303 304 306
299 298 297 306 307 301 289 285 285 291 292 292 285 289 285 286 288 290 288 294 292 296 297 291 284 289 292 297 296 295 297 286 287 279 277 283 285 287 292 294 298 299 301 303 303
297 290 298 305 303 294 283 286 287 291 294 290 289 287 289 286 289 287 288 291 295 295 293 292 289 285 292 291 290 290 289 290 289 286 280 278 283 293 293 295 296 299 299 301 301
294 283 300 302 286 287 284 285 291 290 293 290 293 292 289 290 288 288 288 290 295 295 288 292 287 282 285 290 293 294 291 291 284 281 285 283 283 295 295 296 297 298 300 302 303
285 291 300 297 279 284 286 286 289 290 290 289 289 291 293 289 286 289 289 291 296 293 291 291 286 279 280 285 289 288 291 292 291 288 284 280 283 295 295 295 296 297 299 300 301
286 284 291 290 288 287 285 285 285 293 289 289 289 292 290 287 290 286 287 289 294 296 295 295 287 284 280 282 287 284 287 290 289 283 284 284 286 290 293 293 295 297 298 299 299
288 285 288 282 283 286 290 287 284 284 288 290 289 290 288 284 285 285 288 288 291 295 294 291 284 286 284 285 286 286 286 288 287 288 284 286 286 290 293 294 296 296 296 296 296
286 287 290 287 287 285 289 286 285 286 288 286 287 290 289 285 287 284 287 288 287 292 290 290 283 285 282 284 284 283 286 288 289 289 288 288 287 294 296 297 295 295 295 294 295
291 293 291 287 286 285 287 287 287 288 287 290 291 289 287 289 291 293 293 293 292 290 289 286 283 282 279 283 282 279 283 285 287 290 290 285 290 294 294 293 294 294 293 293 295
Wind_Speed
20 22 21 20 18 17 15 13 11 10 12 11 10 8 5 2 3 3 10 4 4 3 3 1 1 1 1 2 2 1 5 7 5 6 4 7 8 3 1 5 5 7 1 4 11
15 21 23 22 20 18 17 15 13 11 11 12 11 9 7 6 4 10 8 6 3 0 2 4 4 3 3 1 1 5 5 6 2 7 6 8 6 7 6 8 7 6 6 8 14
16 15 22 24 22 21 18 17 14 12 12 11 12 12 10 10 2 8 11 11 6 6 2 1 2 4 7 2 3 3 10 2 1 3 4 9 8 7 6 7 9 10 12 13 16
16 16 16 22 23 22 20 18 15 13 13 11 13 13 11 9 7 2 3 14 7 6 6 7 6 7 7 9 4 7 3 3 1 3 2 3 2 6 10 5 2 5 5 14 16
16 15 14 19 24 24 22 19 18 16 13 12 14 14 9 6 8 2 3 6 7 6 10 10 10 9 12 7 7 9 6 3 0 1 2 3 4 5 9 10 6 4 8 12 14
16 14 12 12 19 25 24 22 19 17 15 14 16 17 8 14 3 3 6 12 11 9 8 8 8 6 5 5 13 7 7 5 4 2 3 5 6 4 6 13 9 8 10 12 15
17 16 13 14 13 20 25 24 21 19 16 15 15 16 9 14 2 8 10 6 9 10 8 4 3 7 7 5 3 3 6 5 7 5 6 4 10 15 16 7 10 14 14 12 14
18 17 16 17 14 14 23 26 22 20 17 16 13 10 7 4 8 7 10 7 6 4 2 5 3 4 0 6 3 6 5 12 6 8 5 8 22 14 6 10 14 14 13 11 13
19 18 15 17 12 14 18 23 22 21 19 15 11 6 11 9 10 10 6 13 9 4 3 5 6 4 5 7 5 7 10 14 10 10 5 15 16 15 6 9 14 13 11 12 13
20 19 19 17 17 12 17 26 20 17 13 8 3 7 10 12 9 11 5 16 8 9 5 5 4 9 8 13 12 10 10 8 10 6 11 15 16 18 14 10 12 13 13 13 14
22 21 19 20 19 17 14 9 12 10 17 27 18 14 16 10 13 13 11 13 10 10 11 7 8 16 20 16 12 5 14 11 4 6 6 15 18 18 19 18 18 18 17 17 17
24 23 22 21 21 20 13 19 17 7 19 26 9 22 10 12 9 15 15 15 13 15 18 8 19 17 14 16 15 14 12 9 6 4 5 14 20 17 21 22 20 20 20 20 19
24 25 23 23 21 15 14 22 11 17 6 22 18 24 12 12 13 19 16 16 18 20 21 21 11 12 14 13 17 18 16 13 11 5 11 12 26 23 21 25 22 22 22 21 21
26 25 25 23 16 15 18 19 7 10 6 11 19 14 15 11 10 20 21 17 7 22 20 17 10 17 8 12 11 16 9 8 10 6 9 2 16 17 9 13 12 12 16 18 20
24 26 25 28 11 19 23 15 15 2 13 16 26 10 18 14 17 16 16 6 20 10 7 9 17 18 19 15 11 9 6 10 11 11 12 18 13 7 13 14 17 16 17 18 18
26 27 27 18 12 18 13 16 13 12 12 12 18 20 21 22 11 16 11 5 3 11 14 8 2 13 14 8 13 9 7 4 4 5 10 16 14 17 17 18 16 18 17 16 15
30 25 23 13 19 13 18 14 13 19 13 9 17 25 30 18 20 14 20 14 12 11 10 2 5 2 7 10 8 13 14 4 7 7 10 1 13 23 6 6 9 13 13 13 11
26 24 22 15 13 18 16 14 19 9 17 5 25 31 26 25 18 15 26 17 17 12 9 13 7 14 9 11 9 14 18 6 8 6 4 2 13 10 2 5 12 15 15 13 11
24 13 12 14 17 15 16 21 16 20 8 19 25 27 11 16 12 12 24 16 16 23 15 14 9 6 11 7 13 13 16 5 1 2 3 6 13 19 18 20 21 16 17 18 15
12 11 14 16 18 15 16 15 7 14 16 25 21 21 18 23 20 21 17 23 14 23 10 10 9 3 4 5 4 8 10 5 4 6 7 10 13 15 13 7 2 9 12 7 5
11 7 10 18 14 12 16 20 8 11 19 24 21 20 21 23 24 22 13 8 18 24 7 10 4 5 6 11 15 8 11 6 3 5 6 6 8 18 18 10 15 11 4 11 12
8 7 10 15 12 15 19 8 13 21 10 7 11 12 27 28 18 16 14 7 11 19 13 4 6 6 10 3 6 18 16 17 9 9 7 9 12 11 11 5 4 4 10 12 10
5 7 9 15 10 14 8 7 10 27 21 10 12 8 21 18 14 15 14 6 19 20 20 12 7 8 5 3 2 11 18 19 18 1 13 9 11 9 7 5 4 6 11 14 16
3 7 5 7 6 11 14 12 9 21 10 6 10 14 19 19 11 11 12 2 10 18 11 10 5 12 14 5 10 14 21 24 20 13 21 16 25 33 21 17 18 13 15 17 21
4 4 4 5 12 6 18 18 18 12 4 13 13 23 26 14 10 11 15 7 6 12 8 8 11 10 1 2 7 9 17 22 25 29 19 28 23 39 22 17 8 14 20 20 18
3 3 3 2 13 8 16 21 23 14 16 14 19 25 23 20 14 20 14 13 11 14 12 4 4 7 5 5 4 7 14 22 28 30 26 24 25 36 19 16 20 21 15 13 16
1 2 2 9 15 15 11 26 32 18 2 9 26 24 15 17 16 17 8 15 13 16 16 11 9 9 8 6 5 12 26 20 21 25 26 24 38 36 22 17 16 16 10 15 14
Wind_Direction
241 221 212 211 212 212 219 222 207 202 204 197 195 199 200 189 131 198 231 215 226 351 299 268 163 54 29 70 357 266 239 225 192 182 146 146 202 168 116 159 201 175 171 59 142
256 234 218 211 211 213 212 216 215 200 203 199 185 180 174 157 212 241 238 262 256 250 217 213 189 152 171 149 207 237 245 241 213 182 164 160 202 168 209 188 198 184 154 135 152
248 249 233 212 208 209 210 212 211 201 200 196 183 170 161 163 259 247 207 223 207 180 224 232 168 193 204 196 181 191 240 322 300 328 184 165 176 171 190 224 229 211 184 168 166
247 241 241 229 211 209 207 207 206 202 197 193 181 167 159 174 225 116 323 213 179 173 171 162 179 186 204 202 171 217 242 278 9 26 333 194 125 185 206 213 20 206 174 176 183
250 242 240 233 221 211 207 205 205 202 193 189 183 157 143 194 227 163 301 184 166 179 194 182 191 203 210 198 162 219 202 221 284 301 276 295 226 279 239 241 189 179 177 206 211
242 246 241 227 225 216 206 203 200 200 191 193 189 161 181 222 202 171 126 155 175 190 197 184 202 188 206 198 211 186 206 224 241 216 238 254 248 240 223 235 226 216 227 215 216
234 233 236 223 222 222 212 199 197 194 192 189 195 176 210 214 167 152 130 162 168 184 187 212 132 202 148 159 155 154 216 222 224 220 235 221 236 236 251 242 252 248 245 237 222
232 230 222 218 220 231 218 197 194 191 186 185 188 187 231 174 139 138 139 104 109 118 187 158 132 114 226 120 113 211 240 242 199 199 212 212 258 236 255 229 248 251 245 240 245
227 224 224 213 214 224 215 193 193 190 177 173 180 213 226 132 173 159 182 143 125 95 89 142 188 163 146 184 183 207 240 231 254 205 214 211 259 254 254 232 255 261 258 252 250
220 221 216 217 217 229 219 203 183 185 170 158 218 178 197 191 146 148 160 151 129 126 113 170 160 200 200 201 213 199 218 218 226 190 226 237 247 263 251 241 252 266 262 255 247
220 211 216 210 210 217 208 187 184 179 179 196 188 206 152 157 141 177 161 154 146 177 190 201 200 211 202 216 227 253 225 232 232 228 251 246 252 252 263 262 262 255 257 261 257
216 210 214 209 209 215 210 210 206 143 181 219 224 203 166 159 162 167 173 177 184 194 195 181 220 212 210 202 214 222 227 225 252 246 256 269 263 251 261 258 253 257 258 256 263
216 206 205 203 207 211 213 220 139 149 164 205 223 198 169 190 170 174 183 186 188 196 195 208 213 185 187 196 208 220 225 233 250 309 269 282 277 260 242 259 254 250 251 259 258
217 210 199 195 200 202 214 215 220 104 202 177 201 206 186 172 199 166 200 170 176 199 197 219 185 184 177 200 191 228 201 239 247 277 262 7 284 276 260 254 256 243 241 246 251
223 211 200 190 188 198 209 193 147 350 221 160 184 174 173 179 131 182 186 185 188 154 163 192 182 185 200 201 193 238 161 216 232 240 270 257 271 250 245 254 260 257 252 253 253
215 213 200 199 201 206 188 153 150 223 200 155 153 175 159 200 192 143 165 209 159 160 190 184 312 189 192 166 190 143 138 138 174 228 244 240 236 269 249 255 251 257 254 259 260
224 209 201 187 204 193 162 155 205 218 143 166 164 164 172 175 182 177 174 171 171 163 179 93 160 129 166 150 165 181 174 188 206 206 243 289 209 252 285 296 281 267 263 268 265
219 210 205 199 196 185 168 188 220 135 163 158 167 167 174 162 179 186 189 184 196 187 150 184 199 182 165 197 176 194 188 195 207 206 212 128 224 256 63 278 271 267 278 288 279
217 206 201 194 191 186 189 199 202 160 166 155 161 161 147 177 178 172 203 194 184 187 174 176 177 168 187 165 159 188 213 218 354 104 262 221 253 277 262 259 257 261 269 278 294
196 197 204 192 188 198 199 204 150 153 149 158 171 168 161 173 175 193 186 198 177 196 194 176 154 235 149 167 230 186 157 163 178 216 234 246 254 255 246 278 131 254 319 311 347
186 201 189 189 193 203 218 199 134 171 165 165 166 173 181 170 191 195 183 154 188 191 171 159 120 134 171 207 178 165 195 207 201 208 235 263 243 248 274 268 257 278 335 338 341
184 186 161 166 220 205 204 171 145 165 183 170 171 191 174 172 174 172 182 161 172 167 179 158 113 140 194 21 311 217 202 194 200 198 242 271 271 263 279 170 201 309 350 344 329
175 184 168 165 209 181 154 149 158 168 163 172 156 192 163 162 177 182 189 133 178 172 177 170 156 129 122 242 223 224 218 226 230 149 220 211 249 82 59 227 177 338 334 320 313
210 163 162 170 166 198 142 149 142 172 152 123 140 141 140 158 100 164 165 123 191 182 155 143 149 202 212 182 151 204 212 214 213 219 231 222 253 270 242 260 280 312 318 303 308
228 167 157 166 185 223 148 150 138 149 134 145 160 160 151 149 139 155 152 135 172 169 158 151 202 203 159 115 194 223 208 207 211 224 222 241 240 256 264 271 286 301 291 303 305
267 96 165 114 146 170 157 165 155 163 159 169 163 165 160 161 170 154 145 170 170 183 169 176 148 150 219 172 227 249 235 216 216 224 229 245 263 253 269 278 282 283 295 303 304
155 104 294 153 158 172 179 166 163 154 252 149 156 153 165 163 147 159 157 165 153 175 177 155 139 163 216 222 239 272 232 225 227 228 228 231 239 260 270 270 268 284 280 296 301